This is the latest recevied weather packets stored in our database for station/object DB0TV-13. If no packets are shown the sender has not sent any weather packets the latest 10 day(s).
| Time | Temp. | Humidity | Pressure | Rain* | Wind** | Luminosity | Snow |
|---|---|---|---|---|---|---|---|
| 1777845018 | 13.89° C | 82% | 1012.3 hPa | 0 mm | - | 0 W/m² | - |
| 1777844418 | 13.89° C | 82% | 1012.3 hPa | 0 mm | - | 0 W/m² | - |
| 1777843819 | 13.89° C | 82% | 1012.4 hPa | 0 mm | - | 0 W/m² | - |
| 1777843218 | 13.89° C | 82% | 1012.4 hPa | 0 mm | - | 0 W/m² | - |
| 1777842619 | 13.89° C | 82% | 1012.4 hPa | 0 mm | - | 0 W/m² | - |
| 1777842019 | 13.89° C | 82% | 1012.3 hPa | 0 mm | - | 0 W/m² | - |
| 1777841418 | 13.89° C | 81% | 1012.1 hPa | 0 mm | - | 0 W/m² | - |
| 1777840818 | 14.44° C | 81% | 1012.1 hPa | 0 mm | - | 0 W/m² | - |
| 1777840219 | 14.44° C | 81% | 1012.1 hPa | 0 mm | - | 0 W/m² | - |
| 1777839619 | 14.44° C | 81% | 1012.2 hPa | 0 mm | - | 0 W/m² | - |
| 1777839018 | 14.44° C | 82% | 1012.2 hPa | 0 mm | - | 0 W/m² | - |
| 1777838418 | 14.44° C | 82% | 1012.1 hPa | 0 mm | - | 0 W/m² | - |
| 1777837818 | 14.44° C | 83% | 1012.2 hPa | 0 mm | - | 0 W/m² | - |
| 1777837219 | 14.44° C | 83% | 1012.1 hPa | 0 mm | - | 0 W/m² | - |
| 1777836619 | 14.44° C | 84% | 1012.1 hPa | 0 mm | - | 0 W/m² | - |
| 1777836018 | 14.44° C | 84% | 1011.9 hPa | 0 mm | - | 0 W/m² | - |
| 1777835418 | 14.44° C | 84% | 1011.8 hPa | 0 mm | - | 0 W/m² | - |
| 1777834819 | 14.44° C | 84% | 1011.7 hPa | 0 mm | - | 4 W/m² | - |
| 1777834218 | 14.44° C | 85% | 1011.6 hPa | 0 mm | - | 10 W/m² | - |
| 1777833618 | 14.44° C | 85% | 1011.6 hPa | 0 mm | - | 17 W/m² | - |
| 1777833018 | 14.44° C | 85% | 1011.5 hPa | 0 mm | - | 26 W/m² | - |
| 1777832420 | 14.44° C | 84% | 1011.5 hPa | 0 mm | - | 33 W/m² | - |
| 1777831818 | 14.44° C | 84% | 1011.5 hPa | 0 mm | - | 38 W/m² | - |
| 1777831218 | 14.44° C | 84% | 1011.5 hPa | 0 mm | - | 34 W/m² | - |
| 1777830618 | 15° C | 84% | 1011.4 hPa | 0 mm | - | 28 W/m² | - |
* Rain latest hour (hover to see other rain measurements)
** Current wind speed in m/s (hover to see current wind gust speed)